| time (UTC) | temp F | wind direction | speed knots | gust knots | rain 1hr in | rain 24hr in | rain mn in | humidity % | barometer mb |
| 20260510214034 | 45 | 0 | 0.0 | 1.7 | 0.00 | 0.00 | 0.00 | 67 | 1014.6 |
| 20260510213535 | 45 | 190 | 0.0 | 1.7 | 0.00 | 0.00 | 0.00 | 67 | 1014.5 |
| 20260510213044 | 45 | 0 | 0.0 | 1.7 | 0.00 | 0.00 | 0.00 | 66 | 1014.4 |
| 20260510212533 | 45 | 360 | 0.0 | 1.7 | 0.00 | 0.00 | 0.00 | 66 | 1014.5 |
| 20260510212034 | 45 | 0 | 0.0 | 1.7 | 0.00 | 0.00 | 0.00 | 66 | 1014.4 |
| 20260510211545 | 45 | 0 | 0.0 | 1.7 | 0.00 | 0.00 | 0.00 | 66 | 1014.4 |
| 20260510211036 | 45 | 0 | 0.0 | 1.7 | 0.00 | 0.00 | 0.00 | 66 | 1014.4 |
| 20260510210534 | 45 | 0 | 0.0 | 1.7 | 0.00 | 0.00 | 0.00 | 66 | 1014.5 |
| 20260510210045 | 46 | 284 | 0.0 | 1.7 | 0.00 | 0.00 | 0.00 | 65 | 1014.5 |
| 20260510205535 | 46 | 0 | 0.0 | 3.5 | 0.00 | 0.00 | 0.00 | 65 | 1014.5 |
| 20260510205039 | 46 | 324 | 0.0 | 3.5 | 0.00 | 0.00 | 0.00 | 65 | 1014.5 |
| 20260510204545 | 46 | 333 | 0.0 | 1.7 | 0.00 | 0.00 | 0.00 | 64 | 1014.5 |
| 20260510204034 | 46 | 0 | 0.0 | 2.6 | 0.00 | 0.00 | 0.00 | 64 | 1014.6 |
| 20260510203535 | 47 | 0 | 0.0 | 2.6 | 0.00 | 0.00 | 0.00 | 64 | 1014.5 |
| 20260510203047 | 47 | 338 | 0.0 | 2.6 | 0.00 | 0.00 | 0.00 | 63 | 1014.5 |
| 20260510202535 | 47 | 0 | 0.0 | 1.7 | 0.00 | 0.00 | 0.00 | 63 | 1014.6 |
| 20260510202033 | 47 | 0 | 0.0 | 1.7 | 0.00 | 0.00 | 0.00 | 63 | 1014.5 |
| 20260510201546 | 48 | 0 | 0.0 | 2.6 | 0.00 | 0.00 | 0.00 | 62 | 1014.6 |
| 20260510201034 | 48 | 0 | 0.0 | 2.6 | 0.00 | 0.00 | 0.00 | 62 | 1014.5 |
| 20260510200535 | 48 | 0 | 0.0 | 2.6 | 0.00 | 0.00 | 0.00 | 62 | 1014.4 |
| 20260510200059 | 49 | 0 | 0.0 | 2.6 | 0.00 | 0.00 | 0.00 | 61 | 1014.4 |
| 20260510195535 | 49 | 0 | 0.0 | 1.7 | 0.00 | 0.00 | 0.00 | 60 | 1014.5 |
| 20260510195035 | 50 | 0 | 0.0 | 2.6 | 0.00 | 0.00 | 0.00 | 59 | 1014.4 |
| 20260510194623 | 50 | 0 | 0.0 | 2.6 | 0.00 | 0.00 | 0.00 | 58 | 1014.4 |
| 20260510194034 | 50 | 317 | 0.9 | 2.6 | 0.00 | 0.00 | 0.00 | 58 | 1014.5 |
| 20260510193535 | 51 | 0 | 0.0 | 2.6 | 0.00 | 0.00 | 0.00 | 58 | 1014.5 |
| 20260510193049 | 51 | 331 | 0.0 | 4.3 | 0.00 | 0.00 | 0.00 | 57 | 1014.5 |
| 20260510192534 | 51 | 119 | 0.0 | 4.3 | 0.00 | 0.00 | 0.00 | 57 | 1014.5 |
| 20260510192034 | 51 | 301 | 0.9 | 3.5 | 0.00 | 0.00 | 0.00 | 56 | 1014.6 |
| 20260510191541 | 52 | 15 | 0.9 | 3.5 | 0.00 | 0.00 | 0.00 | 55 | 1014.6 |
| 20260510191033 | 52 | 0 | 0.9 | 4.3 | 0.00 | 0.00 | 0.00 | 54 | 1014.6 |
| 20260510190534 | 52 | 0 | 0.9 | 5.2 | 0.00 | 0.00 | 0.00 | 54 | 1014.5 |
| 20260510190052 | 53 | 0 | 0.9 | 5.2 | 0.00 | 0.00 | 0.00 | 56 | 1014.5 |
| 20260510185535 | 53 | 35 | 0.9 | 5.2 | 0.00 | 0.00 | 0.00 | 56 | 1014.5 |
| 20260510185034 | 53 | 286 | 0.9 | 4.3 | 0.00 | 0.00 | 0.00 | 56 | 1014.5 |
| 20260510184552 | 53 | 5 | 0.9 | 3.5 | 0.00 | 0.00 | 0.00 | 57 | 1014.5 |
| 20260510184034 | 53 | 0 | 0.9 | 5.2 | 0.00 | 0.00 | 0.00 | 57 | 1014.5 |
| 20260510183535 | 53 | 0 | 0.9 | 5.2 | 0.00 | 0.00 | 0.00 | 57 | 1014.6 |
| 20260510183046 | 53 | 50 | 0.9 | 6.1 | 0.00 | 0.00 | 0.00 | 57 | 1014.4 |
| 20260510182534 | 53 | 20 | 0.9 | 6.1 | 0.00 | 0.00 | 0.00 | 57 | 1014.6 |
| 20260510182037 | 53 | 342 | 0.9 | 5.2 | 0.00 | 0.00 | 0.00 | 56 | 1014.5 |
| 20260510181549 | 53 | 42 | 0.9 | 4.3 | 0.00 | 0.00 | 0.00 | 56 | 1014.6 |
| 20260510181035 | 53 | 74 | 0.9 | 6.1 | 0.00 | 0.00 | 0.00 | 55 | 1014.6 |
| 20260510180535 | 53 | 70 | 1.7 | 7.0 | 0.00 | 0.00 | 0.00 | 55 | 1014.7 |
| 20260510180043 | 54 | 78 | 1.7 | 7.0 | 0.00 | 0.00 | 0.00 | 55 | 1014.6 |
| 20260510175536 | 54 | 52 | 1.7 | 7.0 | 0.00 | 0.00 | 0.00 | 54 | 1014.7 |
| 20260510175034 | 54 | 125 | 1.7 | 5.2 | 0.00 | 0.00 | 0.00 | 57 | 1014.7 |
| 20260510174550 | 54 | 183 | 0.9 | 5.2 | 0.00 | 0.00 | 0.00 | 58 | 1014.8 |
| 20260510174034 | 54 | 0 | 0.9 | 7.8 | 0.00 | 0.00 | 0.00 | 59 | 1014.7 |
| 20260510173536 | 54 | 9 | 1.7 | 7.8 | 0.00 | 0.00 | 0.00 | 57 | 1014.8 |
| 20260510173044 | 54 | 151 | 1.7 | 7.8 | 0.00 | 0.00 | 0.00 | 57 | 1014.8 |
| 20260510172534 | 54 | 63 | 0.9 | 8.7 | 0.00 | 0.00 | 0.00 | 58 | 1014.9 |
| 20260510172036 | 54 | 5 | 1.7 | 8.7 | 0.00 | 0.00 | 0.00 | 57 | 1014.8 |
| 20260510171546 | 54 | 45 | 2.6 | 8.7 | 0.00 | 0.00 | 0.00 | 56 | 1015.0 |
| 20260510171034 | 55 | 78 | 2.6 | 8.7 | 0.00 | 0.00 | 0.00 | 57 | 1014.9 |
| 20260510170534 | 55 | 338 | 1.7 | 8.7 | 0.00 | 0.00 | 0.00 | 57 | 1014.9 |
| 20260510170053 | 55 | 94 | 2.6 | 9.6 | 0.00 | 0.00 | 0.00 | 57 | 1015.0 |
| 20260510165533 | 55 | 49 | 2.6 | 9.6 | 0.00 | 0.00 | 0.00 | 57 | 1015.1 |
| 20260510165033 | 55 | 43 | 3.5 | 9.6 | 0.00 | 0.00 | 0.00 | 56 | 1015.0 |
| 20260510164551 | 55 | 24 | 2.6 | 9.6 | 0.00 | 0.00 | 0.00 | 56 | 1015.2 |
| 20260510164034 | 56 | 33 | 1.7 | 8.7 | 0.00 | 0.00 | 0.00 | 58 | 1015.2 |
| 20260510163534 | 55 | 90 | 1.7 | 8.7 | 0.00 | 0.00 | 0.00 | 58 | 1015.3 |
| 20260510163043 | 55 | 49 | 2.6 | 8.7 | 0.00 | 0.00 | 0.00 | 58 | 1015.2 |
| 20260510162534 | 55 | 101 | 0.9 | 8.7 | 0.00 | 0.00 | 0.00 | 59 | 1015.3 |
| 20260510162036 | 55 | 43 | 0.9 | 8.7 | 0.00 | 0.00 | 0.00 | 58 | 1015.3 |
| 20260510161545 | 55 | 30 | 1.7 | 7.8 | 0.00 | 0.00 | 0.00 | 59 | 1015.3 |
| 20260510161036 | 54 | 41 | 0.9 | 7.8 | 0.00 | 0.00 | 0.00 | 61 | 1015.5 |
| 20260510160536 | 55 | 92 | 1.7 | 8.7 | 0.00 | 0.00 | 0.00 | 60 | 1015.7 |
| 20260510160049 | 55 | 33 | 2.6 | 8.7 | 0.00 | 0.00 | 0.00 | 60 | 1015.7 |
| 20260510155535 | 55 | 60 | 3.5 | 8.7 | 0.00 | 0.00 | 0.00 | 59 | 1015.7 |
| 20260510155040 | 55 | 342 | 0.9 | 8.7 | 0.00 | 0.00 | 0.00 | 60 | 1015.8 |
| 20260510154554 | 55 | 342 | 1.7 | 8.7 | 0.00 | 0.00 | 0.00 | 61 | 1015.7 |
| 20260510154034 | 55 | 42 | 3.5 | 8.7 | 0.00 | 0.00 | 0.00 | 60 | 1015.7 |
| 20260510153534 | 55 | 94 | 1.7 | 9.6 | 0.00 | 0.00 | 0.00 | 61 | 1015.8 |
| 20260510153051 | 54 | 100 | 3.5 | 9.6 | 0.00 | 0.00 | 0.00 | 60 | 1015.7 |
| 20260510152534 | 55 | 86 | 2.6 | 9.6 | 0.00 | 0.00 | 0.00 | 60 | 1015.7 |
| 20260510152037 | 55 | 44 | 2.6 | 8.7 | 0.00 | 0.00 | 0.00 | 61 | 1015.7 |
| 20260510151547 | 56 | 129 | 2.6 | 8.7 | 0.00 | 0.00 | 0.00 | 60 | 1015.7 |
| 20260510151037 | 56 | 22 | 3.5 | 10.4 | 0.00 | 0.00 | 0.00 | 61 | 1015.8 |
| 20260510150535 | 55 | 338 | 2.6 | 10.4 | 0.00 | 0.00 | 0.00 | 61 | 1015.9 |
| 20260510150046 | 55 | 53 | 0.9 | 7.8 | 0.00 | 0.00 | 0.00 | 61 | 1016.1 |
| 20260510145535 | 56 | 61 | 1.7 | 13.9 | 0.00 | 0.00 | 0.00 | 59 | 1016.1 |
| 20260510145036 | 56 | 76 | 3.5 | 13.9 | 0.00 | 0.00 | 0.00 | 60 | 1016.2 |
| 20260510144550 | 56 | 86 | 2.6 | 9.6 | 0.00 | 0.00 | 0.00 | 61 | 1016.3 |
| 20260510144033 | 57 | 54 | 3.5 | 11.3 | 0.00 | 0.00 | 0.00 | 60 | 1016.2 |
| 20260510143533 | 56 | 31 | 2.6 | 12.2 | 0.00 | 0.00 | 0.00 | 62 | 1016.4 |
| 20260510143042 | 55 | 58 | 2.6 | 12.2 | 0.00 | 0.00 | 0.00 | 64 | 1016.4 |
| 20260510142535 | 55 | 65 | 2.6 | 12.2 | 0.00 | 0.00 | 0.00 | 64 | 1016.5 |
| 20260510142034 | 54 | 59 | 4.3 | 11.3 | 0.00 | 0.00 | 0.00 | 64 | 1016.5 |
| 20260510141552 | 54 | 22 | 4.3 | 11.3 | 0.00 | 0.00 | 0.00 | 64 | 1016.7 |
| 20260510141034 | 55 | 28 | 3.5 | 9.6 | 0.00 | 0.00 | 0.00 | 66 | 1016.7 |
| 20260510140534 | 55 | 25 | 1.7 | 7.8 | 0.00 | 0.00 | 0.00 | 67 | 1016.7 |
| 20260510140053 | 55 | 78 | 2.6 | 10.4 | 0.00 | 0.00 | 0.00 | 67 | 1016.7 |
| 20260510135534 | 55 | 64 | 1.7 | 10.4 | 0.00 | 0.00 | 0.00 | 68 | 1016.8 |
| 20260510135035 | 53 | 51 | 3.5 | 10.4 | 0.00 | 0.00 | 0.00 | 67 | 1016.7 |
| 20260510134543 | 53 | 44 | 4.3 | 10.4 | 0.00 | 0.00 | 0.00 | 67 | 1016.7 |
| 20260510134037 | 54 | 46 | 2.6 | 13.0 | 0.00 | 0.00 | 0.00 | 68 | 1016.8 |
| 20260510133537 | 53 | 55 | 4.3 | 13.0 | 0.00 | 0.00 | 0.00 | 67 | 1016.7 |
| 20260510133045 | 53 | 78 | 5.2 | 13.0 | 0.00 | 0.00 | 0.00 | 68 | 1016.7 |
| 20260510132535 | 53 | 58 | 1.7 | 7.8 | 0.00 | 0.00 | 0.00 | 69 | 1016.8 |
| 20260510132038 | 53 | 64 | 0.9 | 9.6 | 0.00 | 0.00 | 0.00 | 70 | 1016.7 |
| 20260510131543 | 53 | 86 | 1.7 | 9.6 | 0.00 | 0.00 | 0.00 | 70 | 1016.7 |
| 20260510131034 | 52 | 51 | 3.5 | 9.6 | 0.00 | 0.00 | 0.00 | 70 | 1016.8 |
| 20260510130534 | 52 | 29 | 3.5 | 9.6 | 0.00 | 0.00 | 0.00 | 70 | 1016.9 |
| 20260510130053 | 52 | 82 | 2.6 | 9.6 | 0.00 | 0.00 | 0.00 | 70 | 1017.2 |
| 20260510125533 | 52 | 55 | 2.6 | 8.7 | 0.00 | 0.00 | 0.00 | 71 | 1017.2 |
| 20260510125035 | 52 | 154 | 3.5 | 13.0 | 0.00 | 0.00 | 0.00 | 71 | 1017.1 |
| 20260510124553 | 52 | 301 | 2.6 | 13.0 | 0.00 | 0.00 | 0.00 | 72 | 1017.3 |
| 20260510124034 | 51 | 349 | 3.5 | 10.4 | 0.00 | 0.00 | 0.00 | 73 | 1017.2 |
| 20260510123534 | 51 | 112 | 4.3 | 10.4 | 0.00 | 0.00 | 0.00 | 73 | 1017.4 |
| 20260510123046 | 51 | 67 | 3.5 | 10.4 | 0.00 | 0.00 | 0.00 | 74 | 1017.4 |
| 20260510122538 | 50 | 63 | 2.6 | 9.6 | 0.00 | 0.00 | 0.00 | 74 | 1017.4 |
| 20260510122037 | 50 | 86 | 2.6 | 9.6 | 0.00 | 0.00 | 0.00 | 74 | 1017.5 |
| 20260510121549 | 50 | 76 | 2.6 | 8.7 | 0.00 | 0.00 | 0.00 | 74 | 1017.6 |
| 20260510121037 | 50 | 71 | 1.7 | 10.4 | 0.00 | 0.00 | 0.00 | 75 | 1017.7 |
| 20260510120535 | 50 | 74 | 2.6 | 10.4 | 0.00 | 0.00 | 0.00 | 75 | 1017.7 |
| 20260510120048 | 50 | 56 | 3.5 | 10.4 | 0.00 | 0.00 | 0.00 | 75 | 1017.6 |
| 20260510115537 | 50 | 41 | 2.6 | 9.6 | 0.00 | 0.00 | 0.00 | 75 | 1017.7 |
| 20260510115034 | 50 | 67 | 2.6 | 9.6 | 0.00 | 0.00 | 0.00 | 76 | 1017.8 |
| 20260510114545 | 49 | 96 | 2.6 | 10.4 | 0.00 | 0.00 | 0.00 | 77 | 1017.8 |
| 20260510114036 | 49 | 105 | 1.7 | 10.4 | 0.00 | 0.00 | 0.00 | 77 | 1017.8 |
| 20260510113534 | 49 | 29 | 3.5 | 11.3 | 0.00 | 0.00 | 0.00 | 76 | 1017.8 |
| 20260510113046 | 49 | 33 | 2.6 | 12.2 | 0.00 | 0.00 | 0.00 | 77 | 1017.7 |
| 20260510112538 | 49 | 24 | 3.5 | 12.2 | 0.00 | 0.00 | 0.00 | 77 | 1017.8 |
| 20260510112038 | 49 | 94 | 2.6 | 10.4 | 0.00 | 0.00 | 0.00 | 78 | 1017.9 |
| 20260510111545 | 49 | 61 | 2.6 | 10.4 | 0.00 | 0.00 | 0.00 | 78 | 1018.0 |
| 20260510111037 | 49 | 67 | 2.6 | 7.8 | 0.00 | 0.00 | 0.00 | 78 | 1017.9 |
| 20260510110538 | 49 | 9 | 1.7 | 9.6 | 0.00 | 0.00 | 0.00 | 78 | 1018.0 |
| 20260510110045 | 49 | 277 | 2.6 | 9.6 | 0.00 | 0.00 | 0.00 | 79 | 1018.0 |
| 20260510105537 | 49 | 86 | 3.5 | 10.4 | 0.00 | 0.00 | 0.00 | 79 | 1018.1 |
| 20260510105039 | 48 | 77 | 3.5 | 10.4 | 0.00 | 0.00 | 0.00 | 78 | 1018.2 |
| 20260510104542 | 49 | 348 | 2.6 | 12.2 | 0.00 | 0.00 | 0.00 | 78 | 1018.2 |
| 20260510104037 | 48 | 90 | 3.5 | 12.2 | 0.00 | 0.00 | 0.00 | 79 | 1018.1 |
| 20260510103540 | 48 | 119 | 4.3 | 11.3 | 0.00 | 0.00 | 0.00 | 79 | 1018.2 |
| 20260510103057 | 48 | 121 | 4.3 | 10.4 | 0.00 | 0.00 | 0.00 | 79 | 1018.1 |
| 20260510102534 | 48 | 346 | 2.6 | 13.0 | 0.00 | 0.00 | 0.00 | 80 | 1018.2 |
| 20260510102034 | 48 | 72 | 3.5 | 13.0 | 0.00 | 0.00 | 0.00 | 80 | 1018.2 |
| 20260510101550 | 48 | 84 | 4.3 | 10.4 | 0.00 | 0.00 | 0.00 | 80 | 1018.2 |
| 20260510101033 | 48 | 66 | 1.7 | 10.4 | 0.00 | 0.00 | 0.00 | 81 | 1018.2 |
| 20260510100535 | 48 | 104 | 4.3 | 10.4 | 0.00 | 0.00 | 0.00 | 81 | 1018.2 |
| 20260510100045 | 48 | 31 | 3.5 | 9.6 | 0.00 | 0.00 | 0.00 | 81 | 1018.2 |
| 20260510095535 | 48 | 42 | 3.5 | 8.7 | 0.00 | 0.00 | 0.00 | 81 | 1018.3 |
| 20260510095034 | 48 | 0 | 2.6 | 8.7 | 0.00 | 0.00 | 0.00 | 82 | 1018.3 |
| 20260510094546 | 48 | 43 | 0.9 | 7.8 | 0.00 | 0.00 | 0.00 | 82 | 1018.3 |
| 20260510094035 | 47 | 121 | 1.7 | 7.8 | 0.00 | 0.00 | 0.00 | 82 | 1018.3 |
| 20260510093533 | 47 | 328 | 1.7 | 7.8 | 0.00 | 0.00 | 0.00 | 82 | 1018.3 |
| 20260510093043 | 47 | 123 | 1.7 | 8.7 | 0.00 | 0.00 | 0.00 | 82 | 1018.2 |
| 20260510092535 | 47 | 82 | 1.7 | 11.3 | 0.00 | 0.00 | 0.00 | 83 | 1018.4 |
| 20260510092036 | 47 | 329 | 1.7 | 11.3 | 0.00 | 0.00 | 0.00 | 83 | 1018.2 |
| 20260510091551 | 47 | 41 | 3.5 | 11.3 | 0.00 | 0.00 | 0.00 | 83 | 1018.2 |
| 20260510091035 | 47 | 75 | 1.7 | 7.8 | 0.00 | 0.00 | 0.00 | 83 | 1018.2 |
| 20260510090535 | 47 | 86 | 2.6 | 7.8 | 0.00 | 0.00 | 0.00 | 83 | 1018.2 |
| 20260510090051 | 47 | 125 | 1.7 | 8.7 | 0.00 | 0.00 | 0.00 | 84 | 1018.3 |
| 20260510085534 | 47 | 332 | 0.9 | 8.7 | 0.00 | 0.00 | 0.00 | 84 | 1018.4 |
| 20260510085034 | 47 | 119 | 2.6 | 9.6 | 0.00 | 0.00 | 0.00 | 84 | 1018.3 |
| 20260510084545 | 47 | 22 | 0.9 | 9.6 | 0.00 | 0.00 | 0.00 | 84 | 1018.5 |
| 20260510084034 | 47 | 69 | 0.9 | 13.9 | 0.00 | 0.00 | 0.00 | 84 | 1018.3 |
| 20260510083534 | 46 | 148 | 3.5 | 13.9 | 0.00 | 0.00 | 0.00 | 84 | 1018.4 |
| 20260510083042 | 46 | 34 | 2.6 | 11.3 | 0.00 | 0.00 | 0.00 | 84 | 1018.4 |
| 20260510082534 | 46 | 77 | 3.5 | 8.7 | 0.00 | 0.00 | 0.00 | 84 | 1018.5 |
| 20260510082036 | 46 | 49 | 1.7 | 8.7 | 0.00 | 0.00 | 0.00 | 85 | 1018.4 |
| 20260510081556 | 46 | 97 | 2.6 | 8.7 | 0.00 | 0.00 | 0.00 | 85 | 1018.4 |
| 20260510081034 | 46 | 63 | 2.6 | 10.4 | 0.00 | 0.00 | 0.00 | 85 | 1018.4 |
| 20260510080536 | 46 | 0 | 2.6 | 10.4 | 0.00 | 0.00 | 0.00 | 85 | 1018.5 |
| 20260510080048 | 46 | 71 | 3.5 | 10.4 | 0.00 | 0.00 | 0.00 | 85 | 1018.4 |
| 20260510075535 | 46 | 15 | 1.7 | 8.7 | 0.00 | 0.00 | 0.00 | 85 | 1018.4 |
| 20260510075035 | 46 | 49 | 2.6 | 8.7 | 0.00 | 0.00 | 0.00 | 85 | 1018.3 |
| 20260510074556 | 46 | 44 | 2.6 | 13.0 | 0.00 | 0.00 | 0.00 | 85 | 1018.4 |
| 20260510074037 | 46 | 134 | 5.2 | 13.9 | 0.00 | 0.00 | 0.00 | 85 | 1018.3 |
| 20260510073534 | 47 | 95 | 4.3 | 13.9 | 0.00 | 0.00 | 0.00 | 85 | 1018.2 |
| 20260510073046 | 47 | 35 | 2.6 | 11.3 | 0.00 | 0.00 | 0.00 | 85 | 1018.1 |
| 20260510072534 | 47 | 53 | 3.5 | 12.2 | 0.00 | 0.00 | 0.00 | 85 | 1018.1 |
| 20260510072133 | 47 | 302 | 3.5 | 12.2 | 0.00 | 0.00 | 0.00 | 85 | 1018.0 |
| 20260510071544 | 47 | 74 | 1.7 | 11.3 | 0.00 | 0.00 | 0.00 | 85 | 1018.0 |
| 20260510071037 | 47 | 109 | 4.3 | 11.3 | 0.00 | 0.00 | 0.00 | 84 | 1018.1 |
| 20260510070536 | 47 | 74 | 1.7 | 10.4 | 0.00 | 0.00 | 0.00 | 84 | 1018.1 |
| 20260510070047 | 47 | 53 | 2.6 | 19.1 | 0.00 | 0.00 | 0.00 | 84 | 1018.1 |
| 20260510065537 | 47 | 352 | 4.3 | 19.1 | 0.00 | 0.00 | 0.00 | 84 | 1018.0 |
| 20260510065035 | 47 | 77 | 3.5 | 19.1 | 0.00 | 0.00 | 0.00 | 84 | 1018.0 |
| 20260510064545 | 47 | 31 | 3.5 | 14.8 | 0.00 | 0.00 | 0.00 | 84 | 1017.8 |
| 20260510064034 | 47 | 188 | 4.3 | 12.2 | 0.00 | 0.00 | 0.00 | 84 | 1017.8 |
| 20260510063534 | 47 | 23 | 2.6 | 12.2 | 0.00 | 0.00 | 0.00 | 84 | 1017.8 |
| 20260510063046 | 47 | 111 | 3.5 | 13.9 | 0.00 | 0.00 | 0.00 | 84 | 1017.9 |
| 20260510062537 | 47 | 109 | 4.3 | 13.9 | 0.00 | 0.00 | 0.00 | 84 | 1017.8 |
| 20260510062036 | 47 | 311 | 4.3 | 13.9 | 0.00 | 0.00 | 0.00 | 84 | 1017.8 |
| 20260510061553 | 47 | 346 | 2.6 | 13.0 | 0.00 | 0.00 | 0.00 | 84 | 1017.8 |
| 20260510061041 | 47 | 38 | 4.3 | 13.0 | 0.00 | 0.00 | 0.00 | 84 | 1017.8 |
| 20260510060534 | 47 | 288 | 2.6 | 9.6 | 0.00 | 0.00 | 0.00 | 84 | 1017.9 |
| 20260510060043 | 47 | 66 | 2.6 | 9.6 | 0.00 | 0.00 | 0.00 | 84 | 1017.8 |
| 20260510055537 | 47 | 28 | 1.7 | 13.0 | 0.00 | 0.00 | 0.00 | 84 | 1017.7 |
| 20260510055036 | 47 | 175 | 2.6 | 13.0 | 0.00 | 0.00 | 0.00 | 84 | 1017.7 |
| 20260510054558 | 47 | 73 | 3.5 | 13.0 | 0.00 | 0.00 | 0.00 | 84 | 1017.8 |
| 20260510054038 | 47 | 40 | 1.7 | 10.4 | 0.00 | 0.00 | 0.00 | 84 | 1017.7 |
| 20260510053534 | 47 | 134 | 3.5 | 10.4 | 0.00 | 0.00 | 0.00 | 84 | 1017.7 |
| 20260510053048 | 47 | 304 | 1.7 | 7.8 | 0.00 | 0.00 | 0.00 | 84 | 1017.6 |
| 20260510052537 | 47 | 130 | 1.7 | 11.3 | 0.00 | 0.00 | 0.00 | 84 | 1017.6 |
| 20260510052035 | 47 | 0 | 2.6 | 11.3 | 0.00 | 0.00 | 0.00 | 83 | 1017.7 |
| 20260510051546 | 47 | 5 | 2.6 | 11.3 | 0.00 | 0.00 | 0.00 | 83 | 1017.7 |
| 20260510051039 | 47 | 263 | 2.6 | 9.6 | 0.00 | 0.00 | 0.00 | 83 | 1017.7 |
| 20260510050540 | 47 | 28 | 3.5 | 9.6 | 0.00 | 0.00 | 0.00 | 83 | 1017.7 |
| 20260510050053 | 47 | 360 | 4.3 | 10.4 | 0.00 | 0.00 | 0.00 | 83 | 1017.6 |
| 20260510045537 | 47 | 61 | 1.7 | 12.2 | 0.00 | 0.00 | 0.00 | 83 | 1017.7 |
| 20260510045034 | 47 | 55 | 3.5 | 12.2 | 0.00 | 0.00 | 0.00 | 83 | 1017.6 |
| 20260510044549 | 47 | 65 | 2.6 | 10.4 | 0.00 | 0.00 | 0.00 | 83 | 1017.6 |
| 20260510044034 | 47 | 28 | 3.5 | 10.4 | 0.00 | 0.00 | 0.00 | 83 | 1017.6 |
| 20260510043533 | 47 | 112 | 4.3 | 10.4 | 0.00 | 0.00 | 0.00 | 83 | 1017.6 |
| 20260510043048 | 47 | 78 | 3.5 | 13.0 | 0.00 | 0.00 | 0.00 | 83 | 1017.7 |
| 20260510042537 | 47 | 58 | 3.5 | 13.0 | 0.00 | 0.00 | 0.00 | 83 | 1017.6 |
| 20260510042037 | 47 | 329 | 2.6 | 13.0 | 0.00 | 0.00 | 0.00 | 83 | 1017.6 |
| 20260510041601 | 47 | 57 | 4.3 | 13.0 | 0.00 | 0.00 | 0.00 | 83 | 1017.6 |
| 20260510041036 | 47 | 53 | 3.5 | 11.3 | 0.00 | 0.00 | 0.00 | 83 | 1017.5 |
| 20260510040534 | 47 | 324 | 4.3 | 11.3 | 0.00 | 0.00 | 0.00 | 83 | 1017.6 |
| 20260510040051 | 47 | 22 | 3.5 | 13.0 | 0.00 | 0.00 | 0.00 | 83 | 1017.6 |
| 20260510035534 | 47 | 118 | 4.3 | 13.0 | 0.00 | 0.00 | 0.00 | 82 | 1017.6 |
| 20260510035036 | 48 | 40 | 3.5 | 13.0 | 0.00 | 0.00 | 0.00 | 82 | 1017.6 |
| 20260510034553 | 48 | 117 | 4.3 | 9.6 | 0.00 | 0.00 | 0.00 | 82 | 1017.6 |
| 20260510034039 | 48 | 70 | 1.7 | 10.4 | 0.00 | 0.00 | 0.00 | 82 | 1017.8 |
| 20260510033538 | 48 | 42 | 2.6 | 10.4 | 0.00 | 0.00 | 0.00 | 82 | 1017.9 |
| 20260510033055 | 48 | 327 | 3.5 | 13.9 | 0.00 | 0.00 | 0.00 | 82 | 1017.9 |
| 20260510032537 | 48 | 82 | 3.5 | 13.9 | 0.00 | 0.00 | 0.00 | 82 | 1018.0 |
| 20260510032037 | 48 | 62 | 1.7 | 7.8 | 0.00 | 0.00 | 0.00 | 82 | 1018.0 |
| 20260510031555 | 48 | 347 | 2.6 | 8.7 | 0.00 | 0.00 | 0.00 | 82 | 1018.1 |
| 20260510031037 | 48 | 113 | 2.6 | 9.6 | 0.00 | 0.00 | 0.00 | 82 | 1018.1 |
| 20260510030537 | 48 | 54 | 2.6 | 10.4 | 0.00 | 0.00 | 0.00 | 82 | 1018.1 |
| 20260510030047 | 48 | 18 | 2.6 | 10.4 | 0.00 | 0.00 | 0.00 | 82 | 1018.1 |
| 20260510025537 | 48 | 31 | 4.3 | 10.4 | 0.00 | 0.00 | 0.00 | 82 | 1018.1 |
| 20260510025036 | 48 | 78 | 3.5 | 10.4 | 0.00 | 0.00 | 0.00 | 82 | 1018.1 |
| 20260510024605 | 48 | 76 | 3.5 | 11.3 | 0.00 | 0.00 | 0.00 | 82 | 1018.2 |
| 20260510024036 | 48 | 23 | 2.6 | 12.2 | 0.00 | 0.00 | 0.00 | 82 | 1018.2 |
| 20260510023535 | 48 | 360 | 2.6 | 12.2 | 0.00 | 0.00 | 0.00 | 82 | 1018.2 |
| 20260510023055 | 48 | 44 | 4.3 | 12.2 | 0.00 | 0.00 | 0.00 | 81 | 1018.2 |
| 20260510022534 | 48 | 12 | 3.5 | 9.6 | 0.00 | 0.00 | 0.00 | 81 | 1018.1 |
| 20260510022035 | 48 | 34 | 2.6 | 11.3 | 0.00 | 0.00 | 0.00 | 81 | 1018.2 |
| 20260510021541 | 48 | 63 | 2.6 | 11.3 | 0.00 | 0.00 | 0.00 | 81 | 1018.2 |
| 20260510021034 | 48 | 23 | 3.5 | 13.0 | 0.00 | 0.00 | 0.00 | 81 | 1018.3 |
| 20260510020536 | 48 | 22 | 2.6 | 13.0 | 0.00 | 0.00 | 0.00 | 81 | 1018.2 |
| 20260510020239 | 48 | 62 | 3.5 | 13.0 | 0.00 | 0.00 | 0.00 | 80 | 1018.1 |
| 20260510015534 | 48 | 107 | 4.3 | 9.6 | 0.00 | 0.00 | 0.00 | 80 | 1018.3 |
| 20260510015036 | 49 | 13 | 2.6 | 9.6 | 0.00 | 0.00 | 0.00 | 80 | 1018.2 |
| 20260510014557 | 49 | 296 | 4.3 | 9.6 | 0.00 | 0.00 | 0.00 | 80 | 1018.1 |
| 20260510014036 | 49 | 60 | 3.5 | 12.2 | 0.00 | 0.00 | 0.00 | 80 | 1018.1 |
| 20260510013536 | 49 | 19 | 1.7 | 12.2 | 0.00 | 0.00 | 0.00 | 80 | 1018.0 |
| 20260510013058 | 49 | 21 | 3.5 | 9.6 | 0.00 | 0.00 | 0.00 | 80 | 1018.1 |
| 20260510012555 | 49 | 360 | 2.6 | 12.2 | 0.00 | 0.00 | 0.00 | 79 | 1018.1 |
| 20260510012035 | 49 | 163 | 3.5 | 12.2 | 0.00 | 0.00 | 0.00 | 79 | 1018.1 |
| 20260510011550 | 49 | 26 | 3.5 | 12.2 | 0.00 | 0.00 | 0.00 | 79 | 1018.1 |
| 20260510011036 | 49 | 107 | 3.5 | 12.2 | 0.00 | 0.00 | 0.00 | 79 | 1018.2 |
| 20260510010536 | 49 | 53 | 3.5 | 13.9 | 0.00 | 0.00 | 0.00 | 79 | 1018.1 |
| 20260510010051 | 50 | 28 | 2.6 | 13.9 | 0.00 | 0.00 | 0.00 | 79 | 1018.2 |
| 20260510005533 | 50 | 76 | 2.6 | 13.0 | 0.00 | 0.00 | 0.00 | 79 | 1018.1 |
| 20260510005037 | 50 | 98 | 3.5 | 13.0 | 0.00 | 0.00 | 0.00 | 79 | 1018.1 |
| 20260510004555 | 50 | 32 | 1.7 | 11.3 | 0.00 | 0.00 | 0.00 | 79 | 1018.2 |
| 20260510004034 | 50 | 64 | 2.6 | 10.4 | 0.00 | 0.00 | 0.00 | 79 | 1018.1 |
| 20260510003534 | 50 | 158 | 4.3 | 10.4 | 0.00 | 0.00 | 0.00 | 79 | 1018.1 |
| 20260510003049 | 50 | 39 | 3.5 | 11.3 | 0.00 | 0.00 | 0.00 | 79 | 1018.3 |
| 20260510002537 | 50 | 338 | 3.5 | 11.3 | 0.00 | 0.00 | 0.00 | 79 | 1018.4 |
| 20260510002034 | 51 | 19 | 3.5 | 13.9 | 0.00 | 0.00 | 0.00 | 79 | 1018.1 |
| 20260510001545 | 51 | 341 | 3.5 | 13.9 | 0.00 | 0.00 | 0.00 | 79 | 1018.1 |
| 20260510001037 | 51 | 340 | 3.5 | 13.9 | 0.00 | 0.00 | 0.00 | 79 | 1018.2 |
| 20260510000537 | 51 | 330 | 2.6 | 9.6 | 0.00 | 0.00 | 0.00 | 79 | 1018.1 |
| 20260510000046 | 51 | 261 | 1.7 | 9.6 | 0.00 | 0.00 | 0.00 | 79 | 1018.0 |
| 20260509235533 | 51 | 99 | 3.5 | 9.6 | 0.00 | 0.00 | 0.00 | 79 | 1017.9 |
| 20260509235033 | 51 | 43 | 1.7 | 7.8 | 0.00 | 0.00 | 0.00 | 79 | 1018.1 |
| 20260509234548 | 51 | 105 | 2.6 | 8.7 | 0.00 | 0.00 | 0.00 | 78 | 1018.1 |
| 20260509234034 | 51 | 344 | 2.6 | 9.6 | 0.00 | 0.00 | 0.00 | 78 | 1018.1 |
| 20260509233536 | 52 | 46 | 1.7 | 9.6 | 0.00 | 0.00 | 0.00 | 78 | 1018.1 |
| 20260509233052 | 52 | 50 | 3.5 | 10.4 | 0.00 | 0.00 | 0.00 | 78 | 1018.0 |
| 20260509232534 | 52 | 54 | 3.5 | 11.3 | 0.00 | 0.00 | 0.00 | 78 | 1017.8 |
| 20260509232036 | 52 | 44 | 4.3 | 11.3 | 0.00 | 0.00 | 0.00 | 78 | 1017.9 |
| 20260509231600 | 52 | 41 | 3.5 | 11.3 | 0.00 | 0.00 | 0.00 | 78 | 1017.9 |
| 20260509231034 | 52 | 79 | 2.6 | 9.6 | 0.00 | 0.00 | 0.00 | 78 | 1017.9 |
| 20260509230534 | 52 | 184 | 1.7 | 7.8 | 0.00 | 0.00 | 0.00 | 78 | 1017.9 |
| 20260509230045 | 53 | 360 | 1.7 | 7.8 | 0.00 | 0.00 | 0.00 | 79 | 1017.8 |
| 20260509225540 | 53 | 34 | 2.6 | 16.5 | 0.00 | 0.00 | 0.00 | 78 | 1017.8 |
| 20260509225033 | 53 | 68 | 3.5 | 16.5 | 0.00 | 0.00 | 0.00 | 78 | 1017.7 |
| 20260509224549 | 53 | 63 | 3.5 | 11.3 | 0.00 | 0.00 | 0.00 | 78 | 1017.8 |
| 20260509224037 | 53 | 28 | 3.5 | 11.3 | 0.00 | 0.00 | 0.00 | 78 | 1017.7 |
| 20260509223537 | 53 | 103 | 3.5 | 11.3 | 0.00 | 0.00 | 0.00 | 78 | 1017.7 |
| 20260509223046 | 53 | 28 | 2.6 | 14.8 | 0.00 | 0.00 | 0.00 | 78 | 1017.7 |
| 20260509222540 | 53 | 312 | 2.6 | 14.8 | 0.00 | 0.00 | 0.00 | 78 | 1017.5 |
| 20260509222037 | 54 | 267 | 4.3 | 10.4 | 0.00 | 0.00 | 0.00 | 78 | 1017.6 |
| 20260509221548 | 54 | 52 | 3.5 | 13.9 | 0.00 | 0.00 | 0.00 | 78 | 1017.6 |
| 20260509221034 | 54 | 86 | 4.3 | 13.9 | 0.00 | 0.00 | 0.00 | 78 | 1017.6 |
| 20260509220535 | 54 | 62 | 4.3 | 12.2 | 0.00 | 0.00 | 0.00 | 78 | 1017.5 |
| 20260509220052 | 54 | 352 | 2.6 | 12.2 | 0.00 | 0.00 | 0.00 | 78 | 1017.5 |
| 20260509215538 | 54 | 322 | 3.5 | 13.0 | 0.00 | 0.00 | 0.00 | 78 | 1017.6 |
| 20260509215037 | 54 | 50 | 2.6 | 13.0 | 0.00 | 0.00 | 0.00 | 77 | 1017.6 |
| 20260509214543 | 54 | 82 | 4.3 | 13.0 | 0.00 | 0.00 | 0.00 | 77 | 1017.6 |